Weather Roundup
Issued by NWS Corpus Christi, TX

Home | Current Version | Previous Version | Text Only | Print | Product List | Glossary On
Versions: 1 2 3 4 5 6 7 8 9 10 11 12 13 14 15 16 17 18 19 20 21 22 23 24 25 26 27 28 29 30 31 32 33 34 35 36 37 38 39 40 41 42 43 44 45 46 47 48 49 50
000
ASUS44 KCRP 240110
HRRCRP

SOUTH TEXAS REGIONAL WEATHER ROUNDUP
NATIONAL WEATHER SERVICE CORPUS CHRISTI TX
800 PM CDT THU MAR 23 2017


TXZ229>244-240200-
...CORPUS CHRISTI AREA OBSERVATIONS...

CITY           SKY/WX    TMP DP  RH WIND       PRES   REMARKS
CORPUS CHRISTI MOCLDY    73  66  78 SE23G31   29.97R
NAS CORPUS CHR MOCLDY    72  68  87 SE15G29   29.97S
ROCKPORT       PTCLDY    73  65  75 SE15G25   29.99R
KINGSVILLE NAS MOCLDY    73  67  81 SE20G30   29.96R
ALICE          MOCLDY    73  63  70 SE20G28   29.94R
ORANGE GROVE   CLOUDY    73  65  75 SE24G32   29.96R
FALFURRIAS     CLOUDY    77  63  61 SE10G20   29.94R
$$

...VICTORIA AREA OBSERVATIONS...

CITY           SKY/WX    TMP DP  RH WIND       PRES   REMARKS
VICTORIA       PTCLDY    73  63  70 SE22G29   29.99F
BEEVILLE       FAIR      73  66  80 SE17G25   29.96S
PLEASANTON     PTCLDY    74  55  49 SE14G24   29.93S
SAN ANTONIO    MOCLDY    74  52  46 SE24G32   29.94R
$$

...LAREDO AREA OBSERVATIONS...

CITY           SKY/WX    TMP DP  RH WIND       PRES   REMARKS
LAREDO         PTCLDY    80  60  50 SE20G29   29.87S
COTULLA        PTCLDY    81  54  39 SE13G22   29.89R
DEL RIO        PTCLDY    80  54  40 SE15G23   29.79R
MCALLEN        PTCLDY    78  64  61 SE15G25   29.93R
HEBBRONVILLE   PTCLDY    76  55  48 S16G22    29.92S
$$

...OTHER TEXAS OBSERVATIONS...

CITY           SKY/WX    TMP DP  RH WIND       PRES   REMARKS
BROWNSVILLE    CLEAR     74  65  73 SE18G25   29.97R
HOUSTON        MOCLDY    72  58  61 S17G25    30.04F
COL. STATION   CLEAR     76  51  41 S15       29.98R
AUSTIN         MOCLDY    75  49  39 S16G24    29.95R
WACO           CLEAR     76  47  35 S23G30    29.91S
FORT WORTH     PTCLDY    80  46  30 S25G43    29.85S
WICHITA FALLS  MOCLDY    77  46  33 S20G30    29.73S
LUBBOCK        PTCLDY    74  49  41 S35G53    29.58F
EL PASO        FAIR      63  13  14 W32G45    29.91R
$$

...MARINE OBSERVATIONS...

STATION/POSITION TIME  SKY/WX   TEMP    WIND        PRES    VSBY  WAVE   SWELL
                                AIR SEA DIR/SP/G                  HT/PER HT/PER
                 (UTC)          (F)     (DEG/KT/KT) (MB)    (MI)  (FT/S) (FT/S)
PORT ARANSAS     0000            72 73  130/ 21/ 23 1015.2F
BUOY 90 E PORT A 2350            74 72  140/ 17/ 21 1017.4          4/ 6
BUOY 45 SE BAFFI 2350            73     150/ 17/ 19 1015.0          4/ 6
BUOY 200 E PT IS 2350            75 77  140/ 16/ 17 1018.2          4/ 5
BUOY 15 E GALVES 2350            72 74  140/ 17/ 19 1018.5          3/ 6
$$




USA.gov is the U.S. government's official web portal to all federal, state and local government web resources and services.